Location: Calberlah
(52.4230°N, 10.6240°E)
Time: 19:57:48
(UTC+00:00)

ARIANE 5 R/B - Pass Details

Date: 19 May 2025
Orbit: 614 x 648 km, 98.0° (Epoch: 16 June)

Event Time Altitude Azimuth Distance (km) Brightness Sun altitude
Exits shadow 21:23:54 19° 125° (SE) 1,505 4.0 -13.7°
Maximum altitude 21:26:35 39° 66° (ENE) 945 3.5 -13.9°
Drops below altitude 10° 21:30:38 10° 358° (N) 2,008 6.3 -14.2°
Sets 21:32:56 0° 351° (N) 2,926 7.6 -14.3°
